EW1706 Weather Reports


Display with metric or nautical units.
time (UTC)temp
F
wind
direction
speed
MPH
gust
MPH
rain 1hr
in
rain 24hr
in
rain mn
in
humidity
%
barometer
mb
20220626112635 69 127 1.0 2.0 0.00 0.00 0.00 87 1019.1
20220626111611 68 127 0.0 1.0 0.00 0.00 0.00 89 1019.3
20220626110555 67 190 0.0 0.0 0.00 0.00 0.00 90 1019.4
20220626105610 67 190 0.0 0.0 0.00 0.00 0.00 91 1019.3
20220626104555 66 190 0.0 1.0 0.00 0.00 0.00 91 1019.4
20220626103547 66 190 0.0 0.0 0.00 0.00 0.00 91 1019.3
20220626102557 65 190 0.0 0.0 0.00 0.00 0.00 91 1019.4
20220626101617 65 190 0.0 0.0 0.00 0.00 0.00 91 1019.4
20220626100557 65 190 0.0 0.0 0.00 0.00 0.00 91 1019.4
20220626095556 65 190 0.0 0.0 0.00 0.00 0.00 91 1019.1
20220626094545 65 190 0.0 0.0 0.00 0.00 0.00 90 1019.1
20220626093540 66 193 0.0 1.0 0.00 0.00 0.00 90 1019.0
20220626092540 66 193 0.0 1.0 0.00 0.00 0.00 90 1019.0
20220626091541 66 219 0.0 0.0 0.00 0.00 0.00 90 1018.9
20220626090513 66 219 0.0 0.0 0.00 0.00 0.00 89 1018.9
20220626085507 66 219 0.0 0.0 0.00 0.00 0.00 89 1018.8
20220626084459 66 219 0.0 0.0 0.00 0.00 0.00 88 1018.8
20220626083452 66 219 0.0 0.0 0.00 0.00 0.00 88 1018.6
20220626082507 67 219 0.0 1.0 0.00 0.00 0.00 88 1018.6
20220626081531 67 219 0.0 1.0 0.00 0.00 0.00 87 1018.4
20220626080537 67 288 0.0 0.0 0.00 0.00 0.00 87 1018.4
20220626075524 67 148 0.0 0.0 0.00 0.00 0.00 86 1018.4
20220626074503 67 148 0.0 0.0 0.00 0.00 0.00 85 1018.3
20220626073512 68 148 0.0 0.0 0.00 0.00 0.00 84 1018.3
20220626072440 68 148 0.0 1.0 0.00 0.00 0.00 84 1018.3
20220626071411 68 148 0.0 1.0 0.00 0.00 0.00 84 1018.4
20220626070428 68 148 0.0 1.0 0.00 0.00 0.00 84 1018.4
20220626065423 68 238 0.0 0.0 0.00 0.00 0.00 83 1018.5
20220626064414 68 279 0.0 0.0 0.00 0.00 0.00 83 1018.6
20220626063345 68 279 0.0 0.0 0.00 0.00 0.00 82 1018.7
20220626062318 68 279 0.0 0.0 0.00 0.00 0.00 82 1018.8
20220626061341 68 279 0.0 0.0 0.00 0.00 0.00 81 1018.9
20220626060339 69 279 0.0 0.0 0.00 0.00 0.00 80 1018.9
20220626055342 69 279 0.0 0.0 0.00 0.00 0.00 79 1018.8
20220626054358 69 279 0.0 0.0 0.00 0.00 0.00 79 1018.9
20220626053340 70 279 0.0 0.0 0.00 0.00 0.00 78 1019.0
20220626052351 70 279 0.0 0.0 0.00 0.00 0.00 77 1018.9
20220626051337 70 279 0.0 0.0 0.00 0.00 0.00 76 1018.9
20220626050310 71 18 0.0 0.0 0.00 0.00 0.00 76 1018.8
20220626045247 71 97 0.0 0.0 0.00 0.00 0.00 75 1018.6
20220626044230 71 97 0.0 0.0 0.00 0.00 0.00 74 1018.6
20220626043210 71 97 0.0 0.0 0.00 0.00 0.00 73 1018.6
20220626042219 72 97 0.0 0.0 0.00 0.00 0.00 72 1018.5
20220626041205 72 97 0.0 0.0 0.00 0.00 0.00 71 1018.5
20220626040230 72 97 0.0 1.0 0.00 0.00 0.00 70 1018.5
20220626035243 73 97 0.0 0.0 0.00 0.00 0.00 69 1018.6
20220626034232 73 125 0.0 2.0 0.00 0.00 0.00 68 1018.6
20220626033240 72 79 0.0 2.0 0.00 0.00 0.00 68 1018.6
20220626032242 72 110 0.0 1.0 0.00 0.00 0.00 67 1018.6
20220626031244 72 110 0.0 1.0 0.00 0.00 0.00 65 1018.6
20220626030306 72 110 0.0 0.0 0.00 0.00 0.00 64 1018.6
20220626025326 72 110 0.0 1.0 0.00 0.00 0.00 63 1018.6
20220626024330 73 110 0.0 0.0 0.00 0.00 0.00 62 1018.7
20220626023303 73 110 0.0 1.0 0.00 0.00 0.00 61 1018.6
20220626022314 73 110 0.0 0.0 0.00 0.00 0.00 61 1018.6
20220626021325 73 110 0.0 0.0 0.00 0.00 0.00 60 1018.6
20220626020315 74 110 0.0 0.0 0.00 0.00 0.00 60 1018.7
20220626015333 74 110 0.0 0.0 0.00 0.00 0.00 60 1018.7
20220626014327 74 110 0.0 0.0 0.00 0.00 0.00 58 1018.5
20220626013330 75 110 0.0 0.0 0.00 0.00 0.00 58 1018.4
20220626012300 75 110 0.0 0.0 0.00 0.00 0.00 58 1018.3
20220626011228 76 110 0.0 0.0 0.00 0.00 0.00 58 1018.3
20220626010229 76 110 0.0 0.0 0.00 0.00 0.00 57 1018.1
20220626005243 77 110 0.0 0.0 0.00 0.00 0.00 56 1018.0
20220626004302 78 110 0.0 1.0 0.00 0.00 0.00 55 1018.0
20220626003311 79 110 0.0 1.0 0.00 0.00 0.00 53 1018.0
20220626002316 80 108 0.0 2.0 0.00 0.00 0.00 51 1017.8
20220626001308 81 143 0.0 4.0 0.00 0.00 0.00 50 1017.8
20220626000333 81 108 1.0 4.0 0.00 0.00 0.00 49 1018.0
20220625235321 82 139 1.0 5.0 0.00 0.00 0.00 49 1017.9
20220625234334 83 107 2.0 6.0 0.00 0.00 0.00 48 1017.9
20220625233324 84 136 1.0 6.0 0.00 0.00 0.00 47 1017.8
20220625232322 85 110 1.0 5.0 0.00 0.00 0.00 46 1017.8
20220625231309 87 122 1.0 5.0 0.00 0.00 0.00 45 1017.8
20220625230324 88 134 2.0 4.0 0.00 0.00 0.00 44 1017.7
20220625225322 90 120 0.0 3.0 0.00 0.00 0.00 41 1017.6
20220625224346 91 179 0.0 1.0 0.00 0.00 0.00 42 1017.6
20220625223336 92 144 0.0 1.0 0.00 0.00 0.00 41 1017.6
20220625222340 92 186 0.0 1.0 0.00 0.00 0.00 38 1017.6
20220625221402 93 186 0.0 2.0 0.00 0.00 0.00 39 1017.6
20220625220348 93 202 0.0 2.0 0.00 0.00 0.00 36 1017.7
20220625215318 93 173 0.0 1.0 0.00 0.00 0.00 37 1017.6
20220625214246 93 255 0.0 1.0 0.00 0.00 0.00 37 1017.7
20220625213307 92 188 0.0 3.0 0.00 0.00 0.00 39 1017.5
20220625212255 92 134 0.0 3.0 0.00 0.00 0.00 39 1017.6
20220625211221 92 177 0.0 2.0 0.00 0.00 0.00 38 1017.6
20220625210146 91 127 0.0 2.0 0.00 0.00 0.00 40 1017.6
20220625205151 90 77 0.0 1.0 0.00 0.00 0.00 41 1017.5
20220625204123 91 194 0.0 2.0 0.00 0.00 0.00 39 1017.6
20220625203141 90 324 0.0 1.0 0.00 0.00 0.00 40 1017.6
20220625202128 90 333 0.0 1.0 0.00 0.00 0.00 43 1017.5
20220625201059 90 191 0.0 1.0 0.00 0.00 0.00 42 1017.3
20220625200055 89 23 0.0 1.0 0.00 0.00 0.00 38 1017.3
20220625195116 90 140 0.0 3.0 0.00 0.00 0.00 40 1017.4
20220625194120 90 286 0.0 4.0 0.00 0.00 0.00 38 1017.6
20220625193130 90 219 1.0 4.0 0.00 0.00 0.00 39 1017.5
20220625192140 90 129 0.0 3.0 0.00 0.00 0.00 38 1017.7
20220625191110 90 357 1.0 5.0 0.00 0.00 0.00 38 1017.8
20220625190132 90 323 1.0 5.0 0.00 0.00 0.00 41 1018.0
20220625185153 90 290 0.0 3.0 0.00 0.00 0.00 38 1018.1
20220625184152 90 94 0.0 4.0 0.00 0.00 0.00 37 1018.2
20220625183137 90 302 0.0 4.0 0.00 0.00 0.00 38 1018.2
20220625182153 89 216 0.0 4.0 0.00 0.00 0.00 46 1018.3
20220625181120 89 299 1.0 4.0 0.00 0.00 0.00 41 1018.3
20220625180116 89 283 1.0 4.0 0.00 0.00 0.00 41 1018.5
20220625175114 90 191 1.0 4.0 0.00 0.00 0.00 39 1018.5
20220625174124 89 110 1.0 4.0 0.00 0.00 0.00 42 1018.5
20220625173139 88 198 1.0 4.0 0.00 0.00 0.00 44 1018.5
20220625172143 89 118 1.0 4.0 0.00 0.00 0.00 44 1018.5
20220625171154 89 1 0.0 4.0 0.00 0.00 0.00 42 1018.6
20220625170129 89 334 0.0 3.0 0.00 0.00 0.00 42 1018.7
20220625165109 87 324 0.0 3.0 0.00 0.00 0.00 44 1018.7
20220625164101 87 27 0.0 5.0 0.00 0.00 0.00 45 1018.7
20220625163114 86 143 0.0 5.0 0.00 0.00 0.00 47 1018.8
20220625162042 86 359 1.0 3.0 0.00 0.00 0.00 45 1018.8
20220625161019 86 1 1.0 5.0 0.00 0.00 0.00 45 1018.9
20220625160039 85 198 1.0 5.0 0.00 0.00 0.00 46 1018.9
20220625155007 86 299 1.0 5.0 0.00 0.00 0.00 43 1018.9
20220625154012 86 51 0.0 5.0 0.00 0.00 0.00 44 1018.7
20220625152946 85 252 1.0 5.0 0.00 0.00 0.00 45 1018.8
20220625151942 84 145 0.0 4.0 0.00 0.00 0.00 44 1018.6
20220625150925 84 169 1.0 4.0 0.00 0.00 0.00 45 1018.6
20220625145935 84 9 1.0 3.0 0.00 0.00 0.00 44 1018.6
20220625144924 83 349 0.0 4.0 0.00 0.00 0.00 52 1018.5
20220625143909 82 158 1.0 4.0 0.00 0.00 0.00 51 1018.6
20220625142917 82 110 1.0 4.0 0.00 0.00 0.00 48 1018.7
20220625141928 83 309 0.0 3.0 0.00 0.00 0.00 50 1018.7
20220625140911 83 329 0.0 3.0 0.00 0.00 0.00 51 1018.7
20220625135930 82 344 0.0 1.0 0.00 0.00 0.00 51 1018.6
20220625134955 81 326 0.0 2.0 0.00 0.00 0.00 53 1018.6
20220625133929 80 23 0.0 3.0 0.00 0.00 0.00 55 1018.5
20220625132929 80 288 0.0 3.0 0.00 0.00 0.00 54 1018.7
20220625131938 79 324 0.0 2.0 0.00 0.00 0.00 57 1018.6
20220625130946 78 353 0.0 2.0 0.00 0.00 0.00 61 1018.6
20220625125957 77 85 0.0 3.0 0.00 0.00 0.00 60 1018.7
20220625125020 76 30 0.0 3.0 0.00 0.00 0.00 61 1018.8
20220625124002 75 337 0.0 2.0 0.00 0.00 0.00 65 1018.9
20220625123000 74 350 0.0 3.0 0.00 0.00 0.00 66 1018.8
20220625122015 73 37 1.0 4.0 0.00 0.00 0.00 67 1018.8
20220625121015 71 3 1.0 4.0 0.00 0.00 0.00 71 1018.6
20220625115951 70 29 0.0 3.0 0.00 0.00 0.00 74 1018.7
20220625114945 69 311 1.0 3.0 0.00 0.00 0.00 75 1018.8
20220625113933 67 314 0.0 3.0 0.00 0.00 0.00 80 1018.7
20220625112952 66 342 0.0 3.0 0.00 0.00 0.00 82 1018.7